sat.trackr.live / text

‹ back to catalog

ONEWEB-0579

NORAD 56068 · 2023-043Y

PAYLOAD ACTIVE UNKNOWN

§ Identity

Operator
Country
UK
Launch date
2023-03-26
Launch site
SRILR
Launch vehicle
Mass (kg)
RCS (m²)

Purposes: comms

External: N2YO · Heavens-Above · Gunter

§ Orbital elements

Epoch: 2026-09-20T04:03:14.745888Z

Period
108.94 min
Inclination
87.9289°
Eccentricity
0.0002106
Mean motion
13.21824500 rev/d
Perigee alt
1,176.2 km
Apogee alt
1,179.4 km
Semi-major
7,555.9 km
B*
4.2617e-5
RAAN
225.0701°
Arg perigee
72.7311°
Mean anomaly
287.4053°
Rev number
17,079

§ Raw data

ONEWEB-05791 56068U 23043Y   26263.16892067  .00000031  00000+0  42617-4 0  99922 56068  87.9289 225.0701 0002106  72.7311 287.4053 13.21824500170796

JSON: /api/v1/satellites/56068 · /tle

For live sub-satellite position, see the globe view (requires WebGL).

§ Visibility from observer

Set your observer location to see the next 7 days of passes ≥ 10°. The values pass through the URL so the page stays shareable.

No JS? Fill the form by hand. The geolocation button needs JavaScript.